SQ5OUZ-8 Weather Reports


Display with metric or nautical units.
time (UTC)temp
F
wind
direction
speed
MPH
gust
MPH
rain 1hr
in
rain 24hr
in
rain mn
in
humidity
%
barometer
mb
20260504183918 72 0.0 0.0 0.00 0.00 0.00 32 1012.0
20260504181921 74 0.0 0.0 0.00 0.00 0.00 30 1012.0
20260504175931 76 0.0 0.0 0.00 0.00 0.00 26 1012.0
20260504174240 78 0.0 0.0 0.00 0.00 0.00 25 1011.0
20260504172328 80 0.0 0.0 0.00 0.00 0.00 22 1011.0
20260504170712 80 0.0 0.0 0.00 0.00 0.00 21 1011.0
20260504150113 90 0.0 0.0 0.00 0.00 0.00 15 1011.0
20260504140846 92 0.0 0.0 0.00 0.00 0.00 13 1012.0
20260504100609 89 0.0 0.0 0.00 0.00 0.00 18 1014.0
20260504081308 82 0.0 0.0 0.00 0.00 0.00 22 1015.0
20260504045844 59 0.0 0.0 0.00 0.00 0.00 45 1016.0
20260504044041 57 0.0 0.0 0.00 0.00 0.00 50 1016.0
20260504042210 55 0.0 0.0 0.00 0.00 0.00 56 1016.0
20260504040456 54 0.0 0.0 0.00 0.00 0.00 59 1016.0
20260504034756 53 0.0 0.0 0.00 0.00 0.00 60 1016.0
20260504032818 53 0.0 0.0 0.00 0.00 0.00 58 1016.0
20260504031220 54 0.0 0.0 0.00 0.00 0.00 57 1016.0
20260504025348 55 0.0 0.0 0.00 0.00 0.00 53 1016.0
20260504023502 57 0.0 0.0 0.00 0.00 0.00 49 1016.0
20260504021736 59 0.0 0.0 0.00 0.00 0.00 44 1016.0
20260504015803 59 0.0 0.0 0.00 0.00 0.00 45 1016.0
20260504013947 59 0.0 0.0 0.00 0.00 0.00 45 1016.0
20260504012056 60 0.0 0.0 0.00 0.00 0.00 44 1016.0
20260504010444 59 0.0 0.0 0.00 0.00 0.00 44 1016.0
20260504004510 59 0.0 0.0 0.00 0.00 0.00 45 1016.0
20260504002527 59 0.0 0.0 0.00 0.00 0.00 45 1016.0
20260504000756 59 0.0 0.0 0.00 0.00 0.00 45 1016.0
20260503234822 60 0.0 0.0 0.00 0.00 0.00 44 1016.0
20260503233108 60 0.0 0.0 0.00 0.00 0.00 43 1016.0
20260503231350 60 0.0 0.0 0.00 0.00 0.00 43 1016.0
20260503225634 61 0.0 0.0 0.00 0.00 0.00 42 1016.0
20260503223707 61 0.0 0.0 0.00 0.00 0.00 42 1016.0
20260503222055 61 0.0 0.0 0.00 0.00 0.00 42 1016.0
20260503220226 62 0.0 0.0 0.00 0.00 0.00 41 1016.0
20260503214531 62 0.0 0.0 0.00 0.00 0.00 40 1016.0
20260503212721 62 0.0 0.0 0.00 0.00 0.00 40 1016.0
20260503210952 62 0.0 0.0 0.00 0.00 0.00 39 1016.0
20260503205326 63 0.0 0.0 0.00 0.00 0.00 38 1016.0
20260503203527 64 0.0 0.0 0.00 0.00 0.00 36 1016.0
20260503201721 65 0.0 0.0 0.00 0.00 0.00 34 1016.0
20260503200009 65 0.0 0.0 0.00 0.00 0.00 33 1016.0
20260503194218 67 0.0 0.0 0.00 0.00 0.00 31 1016.0
20260503192445 67 0.0 0.0 0.00 0.00 0.00 30 1016.0
20260503190844 68 0.0 0.0 0.00 0.00 0.00 29 1015.0